Find Starlink 30296

NORAD ID: 57671 Int'l Des: 2023-124 Owner: SPXS Country: US Constellation: starlink operational
LEOCIRCULAR

現在のビュー

3D地球を読み込み中...

About Starlink 30296

Starlink 30296 (NORAD 57671) is a starlink constellation satellite (v2 mini) launched Aug 22, 2023 by SPXS of US. It operates in LEO, CIRCULAR orbit with a mass of 730.00 kg.

Starlink 30296について

説明を読み込み中...

次回通過

Passes for default location (London). Set your location on the main map for personalized predictions.

高度履歴

Loading altitude history...

軌道要素

1 57671U 23124J 26170.96940148 .00002511 00000-0 96899-4 0 9999
2 57671 53.1597 91.9342 0001055 93.6561 266.4560 15.30193975159228
Epoch: Jun 19, 2026 • Age: 16 hours

現在のステータス

高度 475.1 km
速度 7.63 km/s
衛星直下点 16.05°N, 112.98°E
打ち上げ日 Aug 22, 2023
運用期間 2.8 years
タイプ internet

技術仕様

分類 Payload
質量 730.00 kg
乾燥質量 700.00 kg
総質量 730.00 kg
長さ 0.30 m
直径 4.10 m
スパン 29.00 m
形状 Box + pan
製造者 SPXS
バスタイプ Starlink V2M
フェーズステータス In Orbit
所有者/国 SPXS/US

Most Searched